Powrót do katalogu

NOAA 16 DEB

AktywnyPO
NORAD 41418·DEBRIS·🇺🇸 United States

Wystrzelony Sep 21, 2000 z Vandenberg Space Force Base

Loading…

Następne Przeloty (najbliższe 24 godziny)

TLE

ŚwieżeSource: Space-Track

Epoka: Sep 14, 2026, 10:57 UTC

1 41418U 00055KX  26257.45635709  .00003795  00000-0  94067-3 0  9992
2 41418  99.0005 142.1680 0024350 200.1962 159.8271 14.52381382550234

Śledź NOAA 16 DEB w czasie rzeczywistym z AllMySat

Download on the App Store